TANYUSHA 2 (42912 NORAD) Tracking and Keplerian Element Data

This shows tracking and keplerian element data for the satellite.

Feedback or suggestion? Click here.




ElementValue
Catalog42912
NameTANYUSHA 2
Epoch Orbit9100
Epoch Day80.75026603
Epoch Year2019
RAAN27.6321
Inclination51.6402
Eccentricity0.0004516
Argument of Perigee140.0393
Mean Anonmoly293.9192
Mean Motion15.78738419
Decay Rate0.00048785
L11 42912U 98067NB 19080.75026603 .00048785 00000-0 27407-3 0 9990
L22 42912 51.6402 27.6321 0004516 140.0393 293.9192 15.78738419 91003

Live tracking and technical data element details for TANYUSHA 2 (NORAD 42912). TANYUSHA 2 can be tracked NOW for your location showing map with azimuth and elevation plus other details from your city location.

Track the satellite on the map from your city or location and see movement details for azimuth, elevation, latitude, longitude, range, height, and movement on the map or in text.







IsCatalogInMostPopularTable: catalog: 42912, numindb: 205
Update: records affected: 1



GetName: 42912 TANYUSHA 2

Hit Count: updated at: Sat, 23 Mar 2019 02:37:58 GMT